Tracking 32954 objects as of 18-Jan-2026
HD Live streaming from Space Station
objects crossing your sky now

FREGAT DEB

Track FREGAT DEB now!
10-day predictions


NORAD ID: 45891
Int'l Code: 2011-037DL
Perigee: 673.6 km
Apogee: 2,441.3 km
Inclination: 51.3 °
Period: 117.1 minutes
Semi major axis: 7928 km
RCS: Unknown
Launch date: July 18, 2011
Source: Commonwealth of Independent States (former USSR) (CIS)
Launch site: TYURATAM MISSILE AND SPACE COMPLEX (TTMTR)

Note: This is SATELLITE DEBRIS
Your satellite tracking list
Your tracking list is empty




NASA's NSSDC Master Catalog

Two Line Element Set (TLE):
1 45891U 11037DL  26017.38699653  .00003274  00000-0  32842-2 0  9991
2 45891  51.3335 152.0563 1114810 348.5431   9.1838 12.29761843238112
Source of the keplerian elements: AFSPC